Location: Aghk�ilisa
(40.0189°N, 45.0097°E)
Time: 13:50:18
(UTC+00:00)

IRS-1A Rocket - Pass Details

Date: 21 October 2019
Orbit: 852 x 931 km, 99.2° (Epoch: 20 November)

Event Time Altitude Azimuth Distance (km) Brightness Sun altitude
Exits shadow 16:03:42 22° 154° (SSE) 1,762 5.6 -22.0°
Maximum altitude 16:07:17 73° 73° (ENE) 891 4.1 -22.7°
Drops below altitude 10° 16:12:47 10° 350° (N) 2,494 6.8 -23.7°
Sets 16:15:10 0° 348° (NNW) 3,439 7.6 -24.2°
